Sioux Falls, SD

1:28 PM CDT on August 29, 2016 (GMT -0500)
Foss

Weather History for KFSD - July, 2015

Change the Weather History Date:

Tuesday, July 21, 2015

  Actual Average Record
Temperature  
Mean Temperature 65 °F 73 °F  
Max Temperature 80 °F 84 °F 105 °F (1934)
Min Temperature 50 °F 62 °F 45 °F (1947)
Degree Days  
Heating Degree Days 0 0  
Month to date heating degree days 6 0  
Since 1 June heating degree days 15 51  
Since 1 July heating degree days 6 0  
Cooling Degree Days 0 9  
Month to date cooling degree days 140 176  
Year to date cooling degree days 301 347  
Since 1 June cooling degree days 279 311  
Growing Degree Days 15 (Base 50)    
Moisture  
Dew Point 54 °F    
Average Humidity 68    
Maximum Humidity 96    
Minimum Humidity 39    
Precipitation  
Precipitation 0.00 in 0.10 in 2.50 in (2010)
Month to date precipitation 2.11 2.11  
Year to date precipitation 12.95 15.36  
Snow  
Snow 0.00 in 0.00 in 0.00 in ()
Month to date snowfall 0.0 0.0  
Since 1 June snowfall 0.0 0.0  
Since 1 July snowfall 0.0 0.0  
Snow Depth 0.00 in    
Sea Level Pressure  
Sea Level Pressure 29.99 in    
Wind  
Wind Speed 5 mph (South)    
Max Wind Speed 12 mph    
Max Gust Speed 15 mph    
Visibility 10 miles    
Events      
T = Trace of Precipitation, MM = Missing Value Source: NWS Daily Summary

Daily Weather History Graph

Daily Weather History Graph

Search for Another Location

Airport or City:

Trip Planner

Search our weather history database for the weather conditions in past years. The results will help you decide how hot, cold, wet, or windy it might be!

Date:

Astronomy

Jul. 21, 2015 Rise Set
Actual Time 6:04 AM CDT 9:01 PM CDT
Civil Twilight 5:30 AM CDT 9:35 PM CDT
Nautical Twilight 4:47 AM CDT 10:18 PM CDT
Astronomical Twilight 3:56 AM CDT 11:08 PM CDT
Moon 11:39 AM CDT (7/21) 11:46 PM CDT (7/21)
Length of Visible Light 16h 04m
Length of Day
14h 56m
Waxing Crescent, 28% of the Moon is Illuminated
Jul 21
Waxing Crescent
Jul 23
First Quarter
Jul 31
Full
Aug 6
Last Quarter
Aug 14
New

Hourly Weather History & Observations

Time (CDT) Temp. Dew Point Humidity Pressure Visibility Wind Dir Wind Speed Gust Speed Precip Events Conditions
12:56 AM 61.0 °F 55.9 °F 83% 30.00 in 10.0 mi Calm Calm - N/A   Clear
1:56 AM 57.9 °F 55.0 °F 90% 30.01 in 10.0 mi Calm Calm - N/A   Clear
2:56 AM 57.0 °F 54.0 °F 89% 30.00 in 10.0 mi NW 3.5 mph - N/A   Clear
3:56 AM 54.0 °F 51.1 °F 90% 30.00 in 10.0 mi NNE 3.5 mph - N/A   Clear
4:56 AM 52.0 °F 50.0 °F 93% 30.00 in 10.0 mi NE 3.5 mph - N/A   Clear
5:56 AM 51.1 °F 48.9 °F 92% 30.01 in 10.0 mi Calm Calm - N/A   Partly Cloudy
6:56 AM 55.9 °F 54.0 °F 93% 30.02 in 10.0 mi West 3.5 mph - N/A   Partly Cloudy
7:41 AM 60.8 °F 57.2 °F 88% 30.04 in 10.0 mi Calm Calm - N/A   Partly Cloudy
7:56 AM 62.6 °F 57.2 °F 82% 30.03 in 10.0 mi Calm Calm - N/A   Partly Cloudy
8:56 AM 66.9 °F 57.9 °F 73% 30.04 in 10.0 mi Calm Calm - N/A   Partly Cloudy
9:56 AM 72.0 °F 55.9 °F 57% 30.04 in 10.0 mi SSE 5.8 mph - N/A   Partly Cloudy
10:56 AM 73.9 °F 55.0 °F 52% 30.04 in 10.0 mi South 8.1 mph - N/A   Partly Cloudy
11:56 AM 73.9 °F 55.0 °F 52% 30.04 in 10.0 mi South 8.1 mph - N/A   Partly Cloudy
12:56 PM 75.0 °F 55.9 °F 51% 30.02 in 10.0 mi SW 6.9 mph - N/A   Partly Cloudy
1:56 PM 77.0 °F 55.0 °F 47% 30.00 in 10.0 mi Variable 4.6 mph - N/A   Partly Cloudy
2:56 PM 79.0 °F 52.0 °F 39% 29.98 in 10.0 mi Calm Calm - N/A   Partly Cloudy
3:56 PM 79.0 °F 52.0 °F 39% 29.97 in 10.0 mi Variable 5.8 mph - N/A   Partly Cloudy
4:56 PM 78.1 °F 53.1 °F 42% 29.95 in 10.0 mi Calm Calm - N/A   Scattered Clouds
5:56 PM 77.0 °F 54.0 °F 45% 29.94 in 10.0 mi SSW 5.8 mph - N/A   Mostly Cloudy
6:56 PM 77.0 °F 53.1 °F 43% 29.94 in 10.0 mi SSW 9.2 mph - N/A   Mostly Cloudy
7:56 PM 73.0 °F 55.0 °F 53% 29.94 in 10.0 mi SSW 6.9 mph - N/A   Mostly Cloudy
8:56 PM 71.1 °F 55.0 °F 57% 29.94 in 10.0 mi South 6.9 mph - N/A   Mostly Cloudy
9:56 PM 70.0 °F 55.0 °F 59% 29.94 in 10.0 mi SE 10.4 mph - N/A   Mostly Cloudy
10:56 PM 70.0 °F 55.9 °F 61% 29.94 in 10.0 mi SSE 9.2 mph - N/A   Mostly Cloudy
11:56 PM 70.0 °F 55.9 °F 61% 29.94 in 10.0 mi South 8.1 mph - N/A   Mostly Cloudy